Location: Clegg Observatory
(38.9178°N, 78.6069°W)
Time: 21:34:29
(UTC-04:00)

Cosmos 1151 Rocket - Visible Passes

Search period start: 24 July 2014 00:00
Search period end: 03 August 2014 00:00
Orbit: 595 x 618 km, 82.5° (Epoch: 24 July)

Date Brightness Start Highest point End Pass type
(mag) Time Alt. Az. Time Alt. Az. Time Alt. Az.
24 Jul 5.3 04:30:08 10° SE 04:33:37 24° E 04:37:07 10° NE visible
25 Jul 4.3 04:42:50 10° SSE 04:46:55 40° E 04:51:02 10° NNE visible
26 Jul 3.3 04:55:56 10° S 05:00:17 72° E 05:04:41 10° NNE visible
27 Jul 3.1 05:09:23 10° SSW 05:13:44 64° W 05:18:06 10° N visible
28 Jul 5.6 03:47:08 10° SE 03:49:58 17° E 03:52:48 10° NE visible
28 Jul 3.8 05:23:11 10° SW 05:27:14 36° WNW 05:31:18 10° N visible
29 Jul 4.8 04:00:04 13° SE 04:03:14 29° E 04:07:01 10° NNE visible
29 Jul 4.5 05:37:25 10° SW 05:40:49 22° WNW 05:44:13 10° NNW visible
30 Jul 3.8 04:13:55 21° SSE 04:16:33 50° E 04:20:48 10° NNE visible
31 Jul 3.0 04:27:44 29° S 04:29:57 89° E 04:34:22 10° N visible
01 Aug 5.7 03:04:37 10° ESE 03:06:20 12° E 03:08:03 10° ENE visible
01 Aug 3.3 04:41:32 30° SW 04:43:25 51° W 04:47:42 10° N visible
02 Aug 5.1 03:18:22 19° ESE 03:19:33 21° E 03:22:49 10° NE visible
02 Aug 4.0 04:55:17 23° WSW 04:56:57 30° WNW 05:00:48 10° NNW visible
